Home > Weather > Southend-on-Sea > Past weeks

Flag for United Kingdom Past Weather in Southend-on-Sea, England, United Kingdom — Yesterday and Last 2 Weeks

Now
50 °F

Passing clouds.


Feels Like: 49 °F
Forecast: 49 / 62 °F
Wind: 3 mph from North

Location: Southend Airport-On-Sea

Current Time: May 26, 2016 at 3:53:05 AM

Latest Report: May 26, 2016 at 2:50 AM


Visibility: N/A

Pressure: 30.01 "Hg

Humidity: 82%

Dew Point: 45 °F

Location of Southend-on-SeaLocation

Past Weather in Southend-on-Sea — Graph

°F

Southend-on-Sea Temperature Yesterday

Maximum temperature yesterday: 54 °F (at 12:20 PM)
Minimum temperature yesterday: 46 °F (at 5:20 AM)
Average temperature yesterday: 51 °F

High & Low Weather Summary for the Past Weeks

 TemperatureHumidityPressure
High70 °F (May 12, 1:20 PM)100% (May 11, 5:50 AM)30.21 "Hg (May 11, 5:50 AM)
Low36 °F (May 15, 3:50 AM)39% (May 15, 4:50 PM)29.53 "Hg (May 12, 4:50 AM)
Average55 °F73%29.91 "Hg
* Reported May 11 2:50 AM — May 26 2:20 AM, Southend-on-Sea, Weather by CustomWeather, © 2016

Note: Actual official high and low records may vary slightly from our data, if they occured in-between our weather recording intervals... More about our weather records

Advertising

Southend-on-Sea Weather History for the Previous 24 Hours

Scroll right to see more
 ConditionsComfort  
Time TempWeatherWind HumidityBarometerVisibility
2:20 AM
Thu, May 26
50 °FPassing clouds.No wind82%30.01 "HgN/A
1:20 AM50 °FPassing clouds.2 mph82%30.01 "HgN/A
11:50 PM
Wed, May 25
52 °FPassing clouds.2 mph82%30.01 "HgN/A
11:20 PM52 °FPassing clouds.3 mph82%30.01 "HgN/A
10:50 PM52 °FPassing clouds.5 mph82%30.01 "HgN/A
10:20 PM52 °FPassing clouds.6 mph82%30.01 "HgN/A
9:50 PM52 °FPartly sunny.6 mph82%30.01 "HgN/A
9:20 PM52 °FPartly sunny.6 mph82%30.01 "HgN/A
8:50 PM52 °FPartly sunny.5 mph82%30.01 "HgN/A
8:20 PM52 °FPartly sunny.5 mph82%30.01 "HgN/A
7:50 PM52 °FPartly sunny.3 mph82%30.01 "HgN/A
7:20 PM52 °FPartly sunny.3 mph82%30.01 "HgN/A
6:20 PM52 °FScattered clouds.5 mph88%30.01 "HgN/A
5:50 PM52 °FDrizzle. Broken clouds.7 mph82%30.01 "HgN/A
5:20 PM54 °FPartly sunny.6 mph72%30.01 "HgN/A
4:50 PM54 °FMostly cloudy.6 mph72%30.01 "HgN/A
4:20 PM54 °FPartly sunny.6 mph72%30.01 "HgN/A
3:50 PM54 °FPartly sunny.6 mph72%30.01 "HgN/A
3:20 PM54 °FPartly sunny.5 mph72%30.01 "HgN/A
2:50 PM54 °FPartly sunny.7 mph72%30.01 "HgN/A
2:20 PM54 °FPartly sunny.7 mph72%30.01 "HgN/A
1:50 PM52 °FPartly sunny.7 mph77%30.01 "HgN/A
1:20 PM52 °FPartly sunny.7 mph77%30.01 "HgN/A
12:50 PM52 °FPartly sunny.8 mph82%30.01 "HgN/A
12:20 PM54 °FPartly sunny.7 mph72%30.04 "HgN/A
11:50 AM52 °FPartly sunny.6 mph77%30.04 "HgN/A
11:20 AM50 °FPartly sunny.7 mph82%30.04 "HgN/A
10:50 AM50 °FPartly sunny.7 mph82%30.04 "HgN/A
10:20 AM50 °FPartly sunny.6 mph82%30.04 "HgN/A
9:50 AM50 °FPartly sunny.8 mph82%30.04 "HgN/A
9:20 AM50 °FPartly sunny.7 mph82%30.07 "HgN/A
8:50 AM48 °FPartly sunny.8 mph82%30.07 "HgN/A
8:20 AM50 °FPartly sunny.8 mph82%30.07 "HgN/A
7:50 AM48 °FPartly sunny.7 mph82%30.07 "HgN/A
7:20 AM46 °FPartly sunny.8 mph82%30.04 "HgN/A
6:50 AM46 °FPartly sunny.10 mph82%30.04 "HgN/A
6:20 AM46 °FPartly sunny.8 mph82%30.04 "HgN/A
5:50 AM46 °FPassing clouds.7 mph82%30.04 "HgN/A
5:20 AM46 °FPassing clouds.8 mph76%30.04 "HgN/A
4:20 AM48 °FPassing clouds.7 mph71%30.07 "HgN/A
3:20 AM48 °FPassing clouds.7 mph71%30.07 "HgN/A
Weather by CustomWeather, © 2016

See weather overviewHow to use our weather pages